Tracking 30685 objects as of 18-Jun-2025
HD Live streaming from Space Station
objects crossing your sky now

STARLINK-31668

Track STARLINK-31668 now!
10-day predictions
STARLINK-31668 is classified as:


NORAD ID: 59580
Int'l Code: 2024-076S
Perigee: 489.1 km
Apogee: 491.2 km
Inclination: 43.0 °
Period: 94.3 minutes
Semi major axis: 6861 km
RCS: Unknown
Launch date: April 23, 2024
Source: United States (US)
Launch site: AIR FORCE EASTERN TEST RANGE (AFETR)
Your satellite tracking list
Your tracking list is empty




NASA's NSSDC Master Catalog

Two Line Element Set (TLE):
1 59580U 24076S   25169.04206219 -.00002155  00000-0 -68801-4 0  9995
2 59580  43.0039  63.1239 0001512 272.5534  87.5145 15.27586939 66039
Source of the keplerian elements: AFSPC